Regional Weather Roundup
Issued by NWS

Home | Current Version | Previous Version | Graphics & Text | Print | Product List | Glossary On
Versions: 1 2 3 4 5 6 7 8 9 10 11 12 13 14 15 16 17 18 19 20 21 22 23 24 25 26 27 28 29 30 31 32 33 34 35 36 37 38 39 40 41 42 43 44 45 46 47 48 49 50
000
ASUS43 KLOT 190103
RWRIL

ILLINOIS REGIONAL WEATHER ROUNDUP
NATIONAL WEATHER SERVICE CHICAGO/ROMEOVILLE IL
800 PM CDT WED OCT 18 2017

NOTE: "FAIR" INDICATES FEW OR NO CLOUDS BELOW 12,000 FEET WITH NO
SIGNIFICANT WEATHER AND/OR OBSTRUCTIONS TO VISIBILITY.

* THESE STATIONS ARE NOT UNDER NWS QUALITY CONTROL. THEY ALSO MAY NOT
  REPORT WEATHER SUCH AS PRECIPITATION OR FOG.

ILZ001-002-007-009-015-016-024-190200-
NORTHWEST ILLINOIS

CITY           SKY/WX    TMP DP  RH WIND       PRES   REMARKS
MOLINE         CLEAR     62  43  49 S9        30.01R
STERLING*      CLEAR     62  45  53 VRB3        N/A
SAVANNA*       CLEAR     57  44  63 CALM      30.02R
$$

ILZ003-004-008-010-011-017-018-190200-
NORTH CENTRAL ILLINOIS

CITY           SKY/WX    TMP DP  RH WIND       PRES   REMARKS
ROCKFORD       PTCLDY    58  43  57 S12       30.01R
FREEPORT*      CLEAR     57  44  63 S6        30.02R
ROCHELLE*      CLEAR     56  44  65 S7        30.02S
DE KALB*       CLEAR     58  43  58 S12       30.03S
PERU*          CLEAR     60  43  53 S14       30.04F
$$

ILZ005-006-012>014-019>023-190200-
NORTHEAST ILLINOIS

CITY           SKY/WX    TMP DP  RH WIND       PRES   REMARKS
CHICAGO-OHARE  MOCLDY    64  41  42 S12       30.03S
CHICAGO-MIDWAY CLOUDY    65  42  43 S14       30.05R
AURORA         CLEAR     60  43  53 S8        30.03F
LANSING*       CLEAR     60  45  57 SW10G16   30.08R
JOLIET*        CLEAR     64  44  48 S7        30.06S
WAUKEGAN       MOCLDY    63  43  48 SW13      30.00S
DUPAGE AIRPORT CLOUDY    58  44  60 S10       30.02F
KANKAKEE*      CLEAR     59  43  54 S8        30.10R
WHEELING       MOCLDY    66  42  41 S14       30.03F
MORRIS*        CLEAR     60  43  52 S8        30.05S
NORTHERLY ISL    N/A     66  39  37 S12         N/A
$$

LMZ740>746-190200-
SOUTHERN LAKE MICHIGAN

STATION/POSITION SKY/WX   TEMP    WIND        PRES    VSBY  WAVE
                          AIR SEA DIR/SP/G                  HT/PER
                          (F)     (DEG/KT/KT) (MB)    (MI)  (FT/S)
SOUTHERN BUOY              64 61  210/ 19/ 21 1016.2          4/ 4
WILMETTE HARBOR            65 58  190/ 14/ 17   N/A           2/ 4
HARRISON CRIB              67     200/ 19/ 21   N/A
BURNHAM HARBOR             65     190/ 11/ 15   N/A
CALUMET HARBOR             65     200/  8/ 13 1017.1R
BURNS HARBOR               63     190/ 11/ 15 1018.6R
MICHIGAN CITY              63     170/ 10/ 13   N/A
MICHIGAN CITY 6N           62 58  200/ 12/ 16   N/A           2/ 3
ST. JOSEPH                 62 58  200/ 12/ 14 1018.5R         2/ 4
$$

ILZ025>027-034>036-040-047-049-050-058-095>099-190200-
WEST-CENTRAL ILLINOIS

CITY           SKY/WX    TMP DP  RH WIND       PRES   REMARKS
QUINCY         CLEAR     60  43  53 S5        30.06R
GALESBURG*     CLEAR     58  45  60 S6        30.05R
MACOMB*        CLEAR     59  45  58 S8        30.07R
JACKSONVILLE*  CLEAR     63  46  53 S7        30.07S
PITTSFIELD*    CLEAR     62  46  56 S7        30.07R
$$

ILZ028>032-037-038-041>044-048-051>054-059>061-190200-
CENTRAL ILLINOIS

CITY           SKY/WX    TMP DP  RH WIND       PRES   REMARKS
PONTIAC        CLEAR     60  45  56 S8        30.09R
BLOOMINGTON    CLEAR     58  45  62 S12       30.09R
DECATUR        CLEAR     59  46  62 S9        30.11S
PEORIA         CLEAR     60  44  55 S9        30.05S
LACON*         CLEAR     58  45  60 S7        30.04S
LINCOLN*       CLEAR     61  46  58 S9        30.08S
SPRINGFIELD    CLEAR     64  47  53 S9        30.08S
TAYLORVILLE    CLEAR     61  47  59 S10       30.10S
$$

ILZ033-039-045-046-055>057-062-063-190200-
EAST-CENTRAL ILLINOIS

CITY           SKY/WX    TMP DP  RH WIND       PRES   REMARKS
CHAMPAIGN      CLEAR     61  45  55 S12       30.11S
DANVILLE*      CLEAR     59  45  59 S9        30.10S
RANTOUL*       CLEAR     58  48  69 S8        30.11S
MATTOON        CLEAR     62  47  57 S9        30.12S
PARIS*         CLEAR     51  44  79 S7        30.15S
$$

ILZ079-100>102-190200-
SOUTHWEST ILLINOIS

CITY           SKY/WX    TMP DP  RH WIND       PRES   REMARKS
ALTON          CLEAR     61  50  67 CALM      30.11S
BELLEVILLE     CLEAR     62  47  59 S10       30.15R
CAHOKIA*       CLEAR     65  46  50 S8        30.11S
SPARTA*        CLEAR     60  46  61 SE3       30.16R
$$

ILZ064>066-069>071-074>076-080>082-084>086-088>090-092>094-190200-
SOUTH-CENTRAL ILLINOIS

CITY           SKY/WX    TMP DP  RH WIND       PRES   REMARKS
CARBONDALE     CLEAR     58  49  72 S6        30.16S
EFFINGHAM*     CLEAR     60  47  63 SE5       30.16S
MARION         CLEAR     60  48  65 S7        30.17S
MT. VERNON     CLEAR     58  47  66 SW5       30.17R
CENTRALIA*     CLEAR     60  48  65 S8        30.14F
SALEM*         CLEAR     62  47  58 S3        30.15S
METROPOLIS*    CLEAR     57  49  76 CALM      30.20R
$$

ILZ067-068-072-073-078-083-087-091-190200-
SOUTHEAST ILLINOIS

CITY           SKY/WX    TMP DP  RH WIND       PRES   REMARKS
LAWRENCEVILLE  CLEAR     55  47  74 S8        30.17R
FLORA*         CLEAR     58  47  68 S6        30.17R
FAIRFIELD*     CLEAR     60  46  60 CALM      30.16S
HARRISBURG*    CLEAR     53  47  79 CALM      30.18S
ROBINSON*      CLEAR     55  46  70 S6        30.17S
CARMI*         CLEAR     54  47  77 S7        30.17S
$$

ABBREVIATIONS USED IN REMARKS
   TC - TEMPERATURE IN CELSIUS
  WCI - WIND CHILL INDEX
   HX - HEAT INDEX
  VSB - VISIBILITY
$$




USA.gov is the U.S. government's official web portal to all federal, state and local government web resources and services.